Time,TemperatureF,DewpointF,PressureIn,WindDirection,WindDirectionDegrees,WindSpeedMPH,WindSpeedGustMPH,Humidity,HourlyPrecipIn,Conditions,Clouds,dailyrainin,SoftwareType,DateUTC
2013-02-06 00:07:00,40.8,38.4,29.84,WNW,292,4.2,-999.0,91,-99.99,,,0.00,Acu-Link.com,2013-02-06 05:07:00,
2013-02-06 00:22:00,40.8,38.4,29.84,WNW,292,2.7,-999.0,91,-99.99,,,0.00,Acu-Link.com,2013-02-06 05:22:00,
2013-02-06 00:37:00,40.8,38.4,29.85,WNW,292,3.7,-999.0,91,-99.99,,,0.00,Acu-Link.com,2013-02-06 05:37:00,
2013-02-06 00:52:00,40.8,40.3,29.84,WNW,292,3.7,-999.0,98,-99.99,,,0.00,Acu-Link.com,2013-02-06 05:52:00,
2013-02-06 01:07:00,40.8,40.3,29.85,NW,315,3.7,-999.0,98,-99.99,,,0.00,Acu-Link.com,2013-02-06 06:07:00,
2013-02-06 01:23:00,40.3,39.8,29.85,WNW,292,2.7,-999.0,98,-99.99,,,0.00,Acu-Link.com,2013-02-06 06:23:00,
2013-02-06 01:38:00,40.3,39.8,29.85,NW,315,2.7,-999.0,98,-99.99,,,0.00,Acu-Link.com,2013-02-06 06:38:00,
2013-02-06 01:53:00,39.7,39.2,29.85,WNW,292,3.2,-999.0,98,-99.99,,,0.00,Acu-Link.com,2013-02-06 06:53:00,
2013-02-06 02:08:00,39.6,39.1,29.85,NW,315,2.7,-999.0,98,-99.99,,,0.00,Acu-Link.com,2013-02-06 07:08:00,
2013-02-06 02:23:00,39.6,39.1,29.85,West,270,2.2,-999.0,98,-99.99,,,0.00,Acu-Link.com,2013-02-06 07:23:00,
2013-02-06 02:39:00,39.0,38.5,29.84,WNW,292,2.7,-999.0,98,-99.99,,,0.00,Acu-Link.com,2013-02-06 07:39:00,
2013-02-06 02:54:00,39.0,38.5,29.85,NW,315,2.7,-999.0,98,-99.99,,,0.00,Acu-Link.com,2013-02-06 07:54:00,
2013-02-06 03:10:00,38.5,38.0,29.86,NW,315,0.0,-999.0,98,-99.99,,,0.00,Acu-Link.com,2013-02-06 08:10:00,
2013-02-06 03:25:00,37.6,37.1,29.85,West,270,1.7,-999.0,98,-99.99,,,0.00,Acu-Link.com,2013-02-06 08:25:00,
2013-02-06 03:40:00,36.9,36.4,29.86,NNE,22,1.7,-999.0,98,-99.99,,,0.00,Acu-Link.com,2013-02-06 08:40:00,
2013-02-06 03:56:00,37.8,37.3,29.86,WNW,292,5.3,-999.0,98,-99.99,,,0.00,Acu-Link.com,2013-02-06 08:56:00,
2013-02-06 04:11:00,37.8,37.3,29.87,NE,45,2.2,-999.0,98,-99.99,,,0.00,Acu-Link.com,2013-02-06 09:11:00,
2013-02-06 04:26:00,36.9,36.4,29.87,NW,315,2.2,-999.0,98,-99.99,,,0.00,Acu-Link.com,2013-02-06 09:26:00,
2013-02-06 04:42:00,36.0,35.5,29.88,ENE,67,1.1,-999.0,98,-99.99,,,0.00,Acu-Link.com,2013-02-06 09:42:00,
2013-02-06 04:57:00,36.0,35.5,29.89,SSE,157,0.0,-999.0,98,-99.99,,,0.00,Acu-Link.com,2013-02-06 09:57:00,
2013-02-06 05:12:00,35.6,35.1,29.89,West,270,0.0,-999.0,98,-99.99,,,0.00,Acu-Link.com,2013-02-06 10:12:00,
2013-02-06 05:27:00,35.2,34.7,29.90,SW,225,0.0,-999.0,98,-99.99,,,0.00,Acu-Link.com,2013-02-06 10:27:00,
2013-02-06 05:43:00,35.2,34.7,29.90,SSE,157,0.0,-999.0,98,-99.99,,,0.00,Acu-Link.com,2013-02-06 10:43:00,
2013-02-06 05:58:00,35.1,34.6,29.91,NW,315,1.7,-999.0,98,-99.99,,,0.00,Acu-Link.com,2013-02-06 10:58:00,
2013-02-06 06:13:00,35.2,34.7,29.93,NW,315,4.2,-999.0,98,-99.99,,,0.00,Acu-Link.com,2013-02-06 11:13:00,
2013-02-06 06:29:00,35.8,35.3,29.92,NNW,337,2.7,-999.0,98,-99.99,,,0.00,Acu-Link.com,2013-02-06 11:29:00,
2013-02-06 06:44:00,35.2,34.7,29.93,NNW,337,5.3,-999.0,98,-99.99,,,0.00,Acu-Link.com,2013-02-06 11:44:00,
2013-02-06 06:59:00,35.2,34.7,29.94,NNW,337,4.7,-999.0,98,-99.99,,,0.00,Acu-Link.com,2013-02-06 11:59:00,
2013-02-06 07:15:00,35.1,34.6,29.95,NW,315,2.2,-999.0,98,-99.99,,,0.00,Acu-Link.com,2013-02-06 12:15:00,
2013-02-06 07:30:00,34.3,33.8,29.96,North,0,0.0,-999.0,98,-99.99,,,0.00,Acu-Link.com,2013-02-06 12:30:00,
2013-02-06 07:45:00,36.3,35.8,29.97,ESE,112,1.1,-999.0,98,-99.99,,,0.00,Acu-Link.com,2013-02-06 12:45:00,
2013-02-06 08:01:00,39.6,39.1,29.98,West,270,2.2,-999.0,98,-99.99,,,0.00,Acu-Link.com,2013-02-06 13:01:00,
2013-02-06 08:16:00,38.5,38.0,29.98,NNE,22,4.7,-999.0,98,-99.99,,,0.00,Acu-Link.com,2013-02-06 13:16:00,
2013-02-06 08:31:00,39.4,38.9,29.98,NNW,337,3.2,-999.0,98,-99.99,,,0.00,Acu-Link.com,2013-02-06 13:31:00,
2013-02-06 08:47:00,40.8,40.3,29.98,NNW,337,2.7,-999.0,98,-99.99,,,0.00,Acu-Link.com,2013-02-06 13:47:00,
2013-02-06 09:02:00,41.5,41.0,29.98,NNW,337,2.7,-999.0,98,-99.99,,,0.00,Acu-Link.com,2013-02-06 14:02:00,
2013-02-06 09:17:00,41.7,41.2,29.99,North,0,2.7,-999.0,98,-99.99,,,0.00,Acu-Link.com,2013-02-06 14:17:00,
2013-02-06 09:32:00,42.8,40.9,29.99,North,0,4.2,-999.0,93,-99.99,,,0.00,Acu-Link.com,2013-02-06 14:32:00,
2013-02-06 09:48:00,45.1,39.9,29.99,ENE,67,2.7,-999.0,82,-99.99,,,0.00,Acu-Link.com,2013-02-06 14:48:00,
2013-02-06 10:03:00,45.7,39.9,30.00,WNW,292,2.7,-999.0,80,-99.99,,,0.00,Acu-Link.com,2013-02-06 15:03:00,
2013-02-06 10:18:00,46.9,38.0,30.00,WNW,292,2.7,-999.0,71,-99.99,,,0.00,Acu-Link.com,2013-02-06 15:18:00,
2013-02-06 10:34:00,47.3,39.1,30.00,WNW,292,2.7,-999.0,73,-99.99,,,0.00,Acu-Link.com,2013-02-06 15:34:00,
2013-02-06 10:49:00,48.0,38.7,30.01,NNW,337,3.7,-999.0,70,-99.99,,,0.00,Acu-Link.com,2013-02-06 15:49:00,
2013-02-06 11:04:00,48.6,37.4,30.01,WNW,292,5.3,-999.0,65,-99.99,,,0.00,Acu-Link.com,2013-02-06 16:04:00,
2013-02-06 11:20:00,50.2,36.4,30.01,NW,315,3.7,-999.0,59,-99.99,,,0.00,Acu-Link.com,2013-02-06 16:20:00,
2013-02-06 11:35:00,51.1,37.7,30.01,NW,315,4.2,-999.0,60,-99.99,,,0.00,Acu-Link.com,2013-02-06 16:35:00,
2013-02-06 11:50:00,51.3,36.1,30.01,NW,315,3.2,-999.0,56,-99.99,,,0.00,Acu-Link.com,2013-02-06 16:50:00,
2013-02-06 12:06:00,51.4,35.8,30.00,West,270,2.7,-999.0,55,-99.99,,,0.00,Acu-Link.com,2013-02-06 17:06:00,
2013-02-06 12:21:00,52.7,36.1,29.99,East,90,1.1,-999.0,53,-99.99,,,0.00,Acu-Link.com,2013-02-06 17:21:00,
2013-02-06 12:36:00,54.1,35.9,29.99,ESE,112,1.1,-999.0,50,-99.99,,,0.00,Acu-Link.com,2013-02-06 17:36:00,
2013-02-06 12:52:00,55.8,35.9,29.99,West,270,4.7,-999.0,47,-99.99,,,0.00,Acu-Link.com,2013-02-06 17:52:00,
2013-02-06 13:07:00,56.5,36.0,29.98,ESE,112,3.7,-999.0,46,-99.99,,,0.00,Acu-Link.com,2013-02-06 18:07:00,
2013-02-06 13:22:00,58.3,37.1,29.97,ESE,112,1.7,-999.0,45,-99.99,,,0.00,Acu-Link.com,2013-02-06 18:22:00,
2013-02-06 13:38:00,57.4,36.2,29.97,ESE,112,3.2,-999.0,45,-99.99,,,0.00,Acu-Link.com,2013-02-06 18:38:00,
2013-02-06 13:53:00,57.6,36.4,29.96,ESE,112,5.3,-999.0,45,-99.99,,,0.00,Acu-Link.com,2013-02-06 18:53:00,
2013-02-06 14:08:00,57.0,36.4,29.96,SSE,157,2.7,-999.0,46,-99.99,,,0.00,Acu-Link.com,2013-02-06 19:08:00,
2013-02-06 14:23:00,57.6,36.4,29.96,ESE,112,4.2,-999.0,45,-99.99,,,0.00,Acu-Link.com,2013-02-06 19:23:00,
2013-02-06 14:39:00,58.1,36.9,29.95,SE,135,2.7,-999.0,45,-99.99,,,0.00,Acu-Link.com,2013-02-06 19:39:00,
2013-02-06 14:54:00,58.5,36.7,29.95,North,0,2.2,-999.0,44,-99.99,,,0.00,Acu-Link.com,2013-02-06 19:54:00,
2013-02-06 15:09:00,58.1,35.7,29.95,West,270,2.7,-999.0,43,-99.99,,,0.00,Acu-Link.com,2013-02-06 20:09:00,
2013-02-06 15:25:00,57.9,36.7,29.95,ESE,112,2.2,-999.0,45,-99.99,,,0.00,Acu-Link.com,2013-02-06 20:25:00,
2013-02-06 15:40:00,58.1,36.9,29.95,West,270,2.7,-999.0,45,-99.99,,,0.00,Acu-Link.com,2013-02-06 20:40:00,
2013-02-06 15:55:00,56.8,36.2,29.95,NE,45,3.7,-999.0,46,-99.99,,,0.00,Acu-Link.com,2013-02-06 20:55:00,
2013-02-06 16:11:00,56.3,35.8,29.95,East,90,5.3,-999.0,46,-99.99,,,0.00,Acu-Link.com,2013-02-06 21:11:00,
2013-02-06 16:26:00,55.2,34.2,29.95,NE,45,2.2,-999.0,45,-99.99,,,0.00,Acu-Link.com,2013-02-06 21:26:00,
2013-02-06 16:41:00,55.9,33.1,29.96,NW,315,2.2,-999.0,42,-99.99,,,0.00,Acu-Link.com,2013-02-06 21:41:00,
2013-02-06 16:57:00,54.0,33.1,29.96,NE,45,2.7,-999.0,45,-99.99,,,0.00,Acu-Link.com,2013-02-06 21:57:00,
2013-02-06 17:12:00,52.5,31.8,29.97,SW,225,0.0,-999.0,45,-99.99,,,0.00,Acu-Link.com,2013-02-06 22:12:00,
2013-02-06 17:27:00,51.3,31.2,29.97,WNW,292,2.2,-999.0,46,-99.99,,,0.00,Acu-Link.com,2013-02-06 22:27:00,
2013-02-06 17:43:00,50.2,30.2,29.99,NW,315,2.2,-999.0,46,-99.99,,,0.00,Acu-Link.com,2013-02-06 22:43:00,
2013-02-06 17:58:00,49.3,29.4,29.97,NNW,337,4.2,-999.0,46,-99.99,,,0.00,Acu-Link.com,2013-02-06 22:58:00,
2013-02-06 18:13:00,48.7,28.9,29.98,NW,315,3.7,-999.0,46,-99.99,,,0.00,Acu-Link.com,2013-02-06 23:13:00,
2013-02-06 18:28:00,48.7,28.9,30.00,NNW,337,5.3,-999.0,46,-99.99,,,0.00,Acu-Link.com,2013-02-06 23:28:00,
2013-02-06 18:44:00,48.0,28.2,30.00,NNW,337,5.3,-999.0,46,-99.99,,,0.00,Acu-Link.com,2013-02-06 23:44:00,
2013-02-06 18:59:00,48.0,28.7,30.00,NW,315,7.3,-999.0,47,-99.99,,,0.00,Acu-Link.com,2013-02-06 23:59:00,
2013-02-06 19:14:00,47.7,29.0,30.00,NNW,337,5.8,-999.0,48,-99.99,,,0.00,Acu-Link.com,2013-02-07 00:14:00,
2013-02-06 19:30:00,46.9,28.8,30.00,NNW,337,6.8,-999.0,49,-99.99,,,0.00,Acu-Link.com,2013-02-07 00:30:00,
2013-02-06 19:45:00,46.8,28.2,30.00,NNW,337,7.3,-999.0,48,-99.99,,,0.00,Acu-Link.com,2013-02-07 00:45:00,
2013-02-06 20:00:00,46.2,28.1,30.01,NNW,337,5.8,-999.0,49,-99.99,,,0.00,Acu-Link.com,2013-02-07 01:00:00,
2013-02-06 20:16:00,45.5,28.0,30.00,NW,315,5.3,-999.0,50,-99.99,,,0.00,Acu-Link.com,2013-02-07 01:16:00,
2013-02-06 20:31:00,44.6,27.6,30.01,NW,315,3.7,-999.0,51,-99.99,,,0.00,Acu-Link.com,2013-02-07 01:31:00,
2013-02-06 20:46:00,44.4,27.4,30.02,WNW,292,3.2,-999.0,51,-99.99,,,0.00,Acu-Link.com,2013-02-07 01:46:00,
2013-02-06 21:02:00,44.2,26.8,30.02,West,270,4.7,-999.0,50,-99.99,,,0.00,Acu-Link.com,2013-02-07 02:02:00,
2013-02-06 21:17:00,44.6,26.6,30.05,WNW,292,4.2,-999.0,49,-99.99,,,0.00,Acu-Link.com,2013-02-07 02:17:00,
2013-02-06 21:32:00,44.6,26.1,30.07,WNW,292,3.7,-999.0,48,-99.99,,,0.00,Acu-Link.com,2013-02-07 02:32:00,
2013-02-06 21:48:00,43.9,26.0,30.06,NE,45,1.7,-999.0,49,-99.99,,,0.00,Acu-Link.com,2013-02-07 02:48:00,
2013-02-06 22:03:00,43.7,25.8,30.07,WNW,292,3.7,-999.0,49,-99.99,,,0.00,Acu-Link.com,2013-02-07 03:03:00,
2013-02-06 22:18:00,43.9,26.0,30.06,ENE,67,0.0,-999.0,49,-99.99,,,0.00,Acu-Link.com,2013-02-07 03:18:00,
2013-02-06 22:34:00,43.3,25.9,30.05,South,180,1.1,-999.0,50,-99.99,,,0.00,Acu-Link.com,2013-02-07 03:34:00,
2013-02-06 22:49:00,42.3,25.5,30.05,South,180,0.0,-999.0,51,-99.99,,,0.00,Acu-Link.com,2013-02-07 03:49:00,
2013-02-06 23:04:00,42.4,26.0,30.05,South,180,1.7,-999.0,52,-99.99,,,0.00,Acu-Link.com,2013-02-07 04:04:00,
2013-02-06 23:19:00,41.5,25.2,30.05,SE,135,0.0,-999.0,52,-99.99,,,0.00,Acu-Link.com,2013-02-07 04:19:00,
2013-02-06 23:35:00,41.9,26.0,30.05,SSE,157,1.7,-999.0,53,-99.99,,,0.00,Acu-Link.com,2013-02-07 04:35:00,
2013-02-06 23:50:00,43.2,26.3,30.04,SSE,157,3.2,-999.0,51,-99.99,,,0.00,Acu-Link.com,2013-02-07 04:50:00,